Year,Month,Day,Hour,Minute,Value (Times are PST for temperature in C)
2014,07,02,00,00,19.00
2014,07,02,00,01,19.10
2014,07,02,00,02,19.10
2014,07,02,00,03,19.10
2014,07,02,00,04,19.10
2014,07,02,00,05,19.10
2014,07,02,00,06,19.10
2014,07,02,00,07,19.10
2014,07,02,00,08,19.00
2014,07,02,00,09,18.90
2014,07,02,00,10,18.90
2014,07,02,00,11,18.90
2014,07,02,00,12,18.90
2014,07,02,00,13,18.90
2014,07,02,00,14,18.90
2014,07,02,00,15,18.90
2014,07,02,00,16,18.90
2014,07,02,00,17,18.90
2014,07,02,00,18,18.90
2014,07,02,00,19,18.90
2014,07,02,00,20,18.90
2014,07,02,00,21,18.90
2014,07,02,00,22,19.00
2014,07,02,00,23,19.00
2014,07,02,00,24,19.00
2014,07,02,00,25,19.10
2014,07,02,00,26,19.10
2014,07,02,00,27,19.10
2014,07,02,00,28,19.10
2014,07,02,00,29,19.10
2014,07,02,00,30,19.10
2014,07,02,00,31,19.10
2014,07,02,00,32,19.10
2014,07,02,00,33,19.10
2014,07,02,00,34,19.10
2014,07,02,00,35,19.10
2014,07,02,00,36,19.10
2014,07,02,00,37,19.00
2014,07,02,00,38,19.00
2014,07,02,00,39,18.90
2014,07,02,00,40,18.90
2014,07,02,00,41,18.90
2014,07,02,00,42,18.90
2014,07,02,00,43,18.90
2014,07,02,00,44,18.90
2014,07,02,00,45,18.90
2014,07,02,00,46,18.90
2014,07,02,00,47,18.90
2014,07,02,00,48,18.90
2014,07,02,00,49,18.90
2014,07,02,00,50,18.80
2014,07,02,00,51,18.80
2014,07,02,00,52,18.80
2014,07,02,00,53,18.80
2014,07,02,00,54,18.80
2014,07,02,00,55,18.80
2014,07,02,00,56,18.80
2014,07,02,00,57,18.80
2014,07,02,00,58,18.80
2014,07,02,00,59,18.70
2014,07,02,01,00,18.70
2014,07,02,01,01,18.70
2014,07,02,01,02,18.70
2014,07,02,01,03,18.70
2014,07,02,01,04,18.70
2014,07,02,01,05,18.70
2014,07,02,01,06,18.60
2014,07,02,01,07,18.50
2014,07,02,01,08,18.50
2014,07,02,01,09,18.40
2014,07,02,01,10,18.30
2014,07,02,01,11,18.30
2014,07,02,01,12,18.20
2014,07,02,01,13,18.20
2014,07,02,01,14,18.10
2014,07,02,01,15,18.10
2014,07,02,01,16,18.10
2014,07,02,01,17,18.10
2014,07,02,01,18,18.00
2014,07,02,01,19,18.00
2014,07,02,01,20,18.00
2014,07,02,01,21,18.00
2014,07,02,01,22,18.00
2014,07,02,01,23,18.00
2014,07,02,01,24,18.00
2014,07,02,01,25,18.00
2014,07,02,01,26,18.00
2014,07,02,01,27,17.90
2014,07,02,01,28,17.90
2014,07,02,01,29,17.90
2014,07,02,01,30,17.90
2014,07,02,01,31,17.90
2014,07,02,01,32,17.90
2014,07,02,01,33,17.90
2014,07,02,01,34,17.90
2014,07,02,01,35,17.90
2014,07,02,01,36,17.90
2014,07,02,01,37,17.90
2014,07,02,01,38,17.90
2014,07,02,01,39,17.90
2014,07,02,01,40,17.90
2014,07,02,01,41,17.90
2014,07,02,01,42,17.90
2014,07,02,01,43,17.90
2014,07,02,01,44,17.90
2014,07,02,01,45,17.90
2014,07,02,01,46,17.90
2014,07,02,01,47,17.90
2014,07,02,01,48,17.90
2014,07,02,01,49,17.90
2014,07,02,01,50,17.80
2014,07,02,01,51,17.80
2014,07,02,01,52,17.80
2014,07,02,01,53,17.80
2014,07,02,01,54,17.80
2014,07,02,01,55,17.70
2014,07,02,01,56,17.70
2014,07,02,01,57,17.70
2014,07,02,01,58,17.70
2014,07,02,01,59,17.70
2014,07,02,02,00,17.70
2014,07,02,02,01,17.60
2014,07,02,02,02,17.60
2014,07,02,02,03,17.60
2014,07,02,02,04,17.70
2014,07,02,02,05,17.70
2014,07,02,02,06,17.70
2014,07,02,02,07,17.80
2014,07,02,02,08,17.80
2014,07,02,02,09,17.80
2014,07,02,02,10,17.80
2014,07,02,02,11,17.80
2014,07,02,02,12,17.80
2014,07,02,02,13,17.80
2014,07,02,02,14,17.70
2014,07,02,02,15,17.70
2014,07,02,02,16,17.70
2014,07,02,02,17,17.70
2014,07,02,02,18,17.70
2014,07,02,02,19,17.70
2014,07,02,02,20,17.60
2014,07,02,02,21,17.60
2014,07,02,02,22,17.60
2014,07,02,02,23,17.60
2014,07,02,02,24,17.60
2014,07,02,02,25,17.70
2014,07,02,02,26,17.70
2014,07,02,02,27,17.60
2014,07,02,02,28,17.60
2014,07,02,02,29,17.60
2014,07,02,02,30,17.60
2014,07,02,02,31,17.60
2014,07,02,02,32,17.60
2014,07,02,02,33,17.60
2014,07,02,02,34,17.50
2014,07,02,02,35,17.50
2014,07,02,02,36,17.50
2014,07,02,02,37,17.40
2014,07,02,02,38,17.40
2014,07,02,02,39,17.50
2014,07,02,02,40,17.50
2014,07,02,02,41,17.50
2014,07,02,02,42,17.50
2014,07,02,02,43,17.50
2014,07,02,02,44,17.50
2014,07,02,02,45,17.50
2014,07,02,02,46,17.50
2014,07,02,02,47,17.50
2014,07,02,02,48,17.60
2014,07,02,02,49,17.60
2014,07,02,02,50,17.60
2014,07,02,02,51,17.60
2014,07,02,02,52,17.60
2014,07,02,02,53,17.60
2014,07,02,02,54,17.60
2014,07,02,02,55,17.60
2014,07,02,02,56,17.60
2014,07,02,02,57,17.60
2014,07,02,02,58,17.60
2014,07,02,02,59,17.60
2014,07,02,03,00,17.60
2014,07,02,03,01,17.60
2014,07,02,03,02,17.60
2014,07,02,03,03,17.60
2014,07,02,03,04,17.60
2014,07,02,03,05,17.60
2014,07,02,03,06,17.60
2014,07,02,03,07,17.60
2014,07,02,03,08,17.60
2014,07,02,03,09,17.60
2014,07,02,03,10,17.50
2014,07,02,03,11,17.50
2014,07,02,03,12,17.50
2014,07,02,03,13,17.50
2014,07,02,03,14,17.50
2014,07,02,03,15,17.50
2014,07,02,03,16,17.50
2014,07,02,03,17,17.50
2014,07,02,03,18,17.50
2014,07,02,03,19,17.50
2014,07,02,03,20,17.40
2014,07,02,03,21,17.40
2014,07,02,03,22,17.40
2014,07,02,03,23,17.40
2014,07,02,03,24,17.40
2014,07,02,03,25,17.40
2014,07,02,03,26,17.40
2014,07,02,03,27,17.40
2014,07,02,03,28,17.40
2014,07,02,03,29,17.40
2014,07,02,03,30,17.40
2014,07,02,03,31,17.40
2014,07,02,03,32,17.40
2014,07,02,03,33,17.40
2014,07,02,03,34,17.40
2014,07,02,03,35,17.40
2014,07,02,03,36,17.40
2014,07,02,03,37,17.40
2014,07,02,03,38,17.40
2014,07,02,03,39,17.50
2014,07,02,03,40,17.50
2014,07,02,03,41,17.50
2014,07,02,03,42,17.40
2014,07,02,03,43,17.40
2014,07,02,03,44,17.40
2014,07,02,03,45,17.40
2014,07,02,03,46,17.40
2014,07,02,03,47,17.40
2014,07,02,03,48,17.40
2014,07,02,03,49,17.50
2014,07,02,03,50,17.50
2014,07,02,03,51,17.60
2014,07,02,03,52,17.60
2014,07,02,03,53,17.80
2014,07,02,03,54,17.80
2014,07,02,03,55,17.90
2014,07,02,03,56,17.90
2014,07,02,03,57,18.00
2014,07,02,03,58,18.10
2014,07,02,03,59,18.10
2014,07,02,04,00,18.10
2014,07,02,04,01,18.10
2014,07,02,04,02,18.10
2014,07,02,04,03,18.20
2014,07,02,04,04,18.10
2014,07,02,04,05,18.10
2014,07,02,04,06,18.10
2014,07,02,04,07,18.10
2014,07,02,04,08,18.00
2014,07,02,04,09,18.10
2014,07,02,04,10,18.00
2014,07,02,04,11,18.10
2014,07,02,04,12,18.10
2014,07,02,04,13,18.00
2014,07,02,04,14,18.00
2014,07,02,04,15,18.00
2014,07,02,04,16,18.00
2014,07,02,04,17,18.00
2014,07,02,04,18,18.00
2014,07,02,04,19,18.00
2014,07,02,04,20,18.10
2014,07,02,04,21,18.10
2014,07,02,04,22,18.10
2014,07,02,04,23,18.10
2014,07,02,04,24,18.10
2014,07,02,04,25,18.10
2014,07,02,04,26,18.10
2014,07,02,04,27,18.10
2014,07,02,04,28,18.10
2014,07,02,04,29,18.10
2014,07,02,04,30,18.10
2014,07,02,04,31,18.10
2014,07,02,04,32,18.10
2014,07,02,04,33,18.10
2014,07,02,04,34,18.10
2014,07,02,04,35,18.10
2014,07,02,04,36,18.10
2014,07,02,04,37,18.00
2014,07,02,04,38,18.00
2014,07,02,04,39,18.00
2014,07,02,04,40,17.90
2014,07,02,04,41,17.90
2014,07,02,04,42,17.90
2014,07,02,04,43,17.80
2014,07,02,04,44,17.80
2014,07,02,04,45,17.80
2014,07,02,04,46,17.70
2014,07,02,04,47,17.70
2014,07,02,04,48,17.70
2014,07,02,04,49,17.60
2014,07,02,04,50,17.60
2014,07,02,04,51,17.60
2014,07,02,04,52,17.50
2014,07,02,04,53,17.50
2014,07,02,04,54,17.40
2014,07,02,04,55,17.40
2014,07,02,04,56,17.40
2014,07,02,04,57,17.30
2014,07,02,04,58,17.30
2014,07,02,04,59,17.30
2014,07,02,05,00,17.30
2014,07,02,05,01,17.30
2014,07,02,05,02,17.30
2014,07,02,05,03,17.30
2014,07,02,05,04,17.20
2014,07,02,05,05,17.30
2014,07,02,05,06,17.30
2014,07,02,05,07,17.30
2014,07,02,05,08,17.30
2014,07,02,05,09,17.30
2014,07,02,05,10,17.30
2014,07,02,05,11,17.30
2014,07,02,05,12,17.30
2014,07,02,05,13,17.30
2014,07,02,05,14,17.30
2014,07,02,05,15,17.30
2014,07,02,05,16,17.30
2014,07,02,05,17,17.40
2014,07,02,05,18,17.40
2014,07,02,05,19,17.40
2014,07,02,05,20,17.40
2014,07,02,05,21,17.40
2014,07,02,05,22,17.50
2014,07,02,05,23,17.50
2014,07,02,05,24,17.50
2014,07,02,05,25,17.50
2014,07,02,05,26,17.50
2014,07,02,05,27,17.50
2014,07,02,05,28,17.40
2014,07,02,05,29,17.40
2014,07,02,05,30,17.40
2014,07,02,05,31,17.30
2014,07,02,05,32,17.30
2014,07,02,05,33,17.30
2014,07,02,05,34,17.30
2014,07,02,05,35,17.30
2014,07,02,05,36,17.30
2014,07,02,05,37,17.30
2014,07,02,05,38,17.30
2014,07,02,05,39,17.30
2014,07,02,05,40,17.30
2014,07,02,05,41,17.30
2014,07,02,05,42,17.40
2014,07,02,05,43,17.40
2014,07,02,05,44,17.40
2014,07,02,05,45,17.40
2014,07,02,05,46,17.40
2014,07,02,05,47,17.40
2014,07,02,05,48,17.40
2014,07,02,05,49,17.40
2014,07,02,05,50,17.40
2014,07,02,05,51,17.40
2014,07,02,05,52,17.40
2014,07,02,05,53,17.40
2014,07,02,05,54,17.50
2014,07,02,05,55,17.50
2014,07,02,05,56,17.50
2014,07,02,05,57,17.50
2014,07,02,05,58,17.50
2014,07,02,05,59,17.50
2014,07,02,06,00,17.50
2014,07,02,06,01,17.50
2014,07,02,06,02,17.50
2014,07,02,06,03,17.50
2014,07,02,06,04,17.50
2014,07,02,06,05,17.50
2014,07,02,06,06,17.60
2014,07,02,06,07,17.60
2014,07,02,06,08,17.60
2014,07,02,06,09,17.60
2014,07,02,06,10,17.60
2014,07,02,06,11,17.60
2014,07,02,06,12,17.70
2014,07,02,06,13,17.70
2014,07,02,06,14,17.80
2014,07,02,06,15,17.80
2014,07,02,06,16,17.80
2014,07,02,06,17,17.80
2014,07,02,06,18,17.80
2014,07,02,06,19,17.80
2014,07,02,06,20,17.80
2014,07,02,06,21,17.80
2014,07,02,06,22,17.80
2014,07,02,06,23,17.90
2014,07,02,06,24,17.90
2014,07,02,06,25,17.90
2014,07,02,06,26,17.90
2014,07,02,06,27,17.90
2014,07,02,06,28,17.90
2014,07,02,06,29,17.90
2014,07,02,06,30,17.90
2014,07,02,06,31,17.90
2014,07,02,06,32,17.90
2014,07,02,06,33,17.90
2014,07,02,06,34,17.80
2014,07,02,06,35,17.80
2014,07,02,06,36,17.80
2014,07,02,06,37,17.70
2014,07,02,06,38,17.70
2014,07,02,06,39,17.80
2014,07,02,06,40,17.80
2014,07,02,06,41,17.80
2014,07,02,06,42,17.80
2014,07,02,06,43,17.80
2014,07,02,06,44,17.80
2014,07,02,06,45,17.80
2014,07,02,06,46,17.80
2014,07,02,06,47,17.80
2014,07,02,06,48,17.80
2014,07,02,06,49,17.70
2014,07,02,06,50,17.70
2014,07,02,06,51,17.70
2014,07,02,06,52,17.70
2014,07,02,06,53,17.70
2014,07,02,06,54,17.60
2014,07,02,06,55,17.70
2014,07,02,06,56,17.60
2014,07,02,06,57,17.60
2014,07,02,06,58,17.60
2014,07,02,06,59,17.60
2014,07,02,07,00,17.60
2014,07,02,07,01,17.60
2014,07,02,07,02,17.60
2014,07,02,07,03,17.60
2014,07,02,07,04,17.60
2014,07,02,07,05,17.60
2014,07,02,07,06,17.60
2014,07,02,07,07,17.60
2014,07,02,07,08,17.50
2014,07,02,07,09,17.60
2014,07,02,07,10,17.60
2014,07,02,07,11,17.60
2014,07,02,07,12,17.60
2014,07,02,07,13,17.70
2014,07,02,07,14,17.70
2014,07,02,07,15,17.80
2014,07,02,07,16,17.80
2014,07,02,07,17,17.90
2014,07,02,07,18,17.90
2014,07,02,07,19,17.90
2014,07,02,07,20,17.80
2014,07,02,07,21,17.80
2014,07,02,07,22,17.80
2014,07,02,07,23,17.80
2014,07,02,07,24,17.80
2014,07,02,07,25,17.80
2014,07,02,07,26,17.80
2014,07,02,07,27,17.80
2014,07,02,07,28,17.80
2014,07,02,07,29,17.80
2014,07,02,07,30,17.70
2014,07,02,07,31,17.70
2014,07,02,07,32,17.70
2014,07,02,07,33,17.70
2014,07,02,07,34,17.70
2014,07,02,07,35,17.70
2014,07,02,07,36,17.70
2014,07,02,07,37,17.70
2014,07,02,07,38,17.70
2014,07,02,07,39,17.80
2014,07,02,07,40,17.80
2014,07,02,07,41,17.80
2014,07,02,07,42,17.80
2014,07,02,07,43,17.90
2014,07,02,07,44,17.90
2014,07,02,07,45,17.90
2014,07,02,07,46,18.00
2014,07,02,07,47,18.00
2014,07,02,07,48,18.00
2014,07,02,07,49,18.10
2014,07,02,07,50,18.10
2014,07,02,07,51,18.20
2014,07,02,07,52,18.20
2014,07,02,07,53,18.30
2014,07,02,07,54,18.30
2014,07,02,07,55,18.40
2014,07,02,07,56,18.40
2014,07,02,07,57,18.50
2014,07,02,07,58,18.50
2014,07,02,07,59,18.60
2014,07,02,08,00,18.60
2014,07,02,08,01,18.70
2014,07,02,08,02,18.70
2014,07,02,08,03,18.70
2014,07,02,08,04,18.70
2014,07,02,08,05,18.70
2014,07,02,08,06,18.80
2014,07,02,08,07,18.80
2014,07,02,08,08,18.80
2014,07,02,08,09,18.80
2014,07,02,08,10,18.90
2014,07,02,08,11,19.00
2014,07,02,08,12,19.00
2014,07,02,08,13,19.10
2014,07,02,08,14,19.20
2014,07,02,08,15,19.30
2014,07,02,08,16,19.30
2014,07,02,08,17,19.50
2014,07,02,08,18,19.60
2014,07,02,08,19,19.70
2014,07,02,08,20,19.80
2014,07,02,08,21,19.90
2014,07,02,08,22,20.10
2014,07,02,08,23,20.20
2014,07,02,08,24,20.40
2014,07,02,08,25,20.60
2014,07,02,08,26,20.70
2014,07,02,08,27,20.90
2014,07,02,08,28,21.10
2014,07,02,08,29,21.20
2014,07,02,08,30,21.30
2014,07,02,08,31,21.50
2014,07,02,08,32,21.70
2014,07,02,08,33,21.80
2014,07,02,08,34,22.00
2014,07,02,08,35,22.10
2014,07,02,08,36,22.30
2014,07,02,08,37,22.40
2014,07,02,08,38,22.60
2014,07,02,08,39,22.70
2014,07,02,08,40,22.90
2014,07,02,08,41,23.00
2014,07,02,08,42,23.10
2014,07,02,08,43,23.30
2014,07,02,08,44,23.40
2014,07,02,08,45,23.40
2014,07,02,08,46,23.50
2014,07,02,08,47,23.60
2014,07,02,08,48,23.70
2014,07,02,08,49,23.70
2014,07,02,08,50,23.80
2014,07,02,08,51,23.80
2014,07,02,08,52,23.80
2014,07,02,08,53,23.80
2014,07,02,08,54,23.80
2014,07,02,08,55,23.80
2014,07,02,08,56,23.90
2014,07,02,08,57,23.90
2014,07,02,08,58,23.90
2014,07,02,08,59,23.90
2014,07,02,09,00,23.90
2014,07,02,09,01,23.90
2014,07,02,09,02,23.90
2014,07,02,09,03,24.00
2014,07,02,09,04,24.00
2014,07,02,09,05,24.10
2014,07,02,09,06,24.10
2014,07,02,09,07,24.20
2014,07,02,09,08,24.20
2014,07,02,09,09,24.30
2014,07,02,09,10,24.30
2014,07,02,09,11,24.30
2014,07,02,09,12,24.30
2014,07,02,09,13,24.30
2014,07,02,09,14,24.30
2014,07,02,09,15,24.30
2014,07,02,09,16,24.30
2014,07,02,09,17,24.30
2014,07,02,09,18,24.20
2014,07,02,09,19,24.20
2014,07,02,09,20,24.20
2014,07,02,09,21,24.10
2014,07,02,09,22,24.00
2014,07,02,09,23,24.00
2014,07,02,09,24,24.00
2014,07,02,09,25,23.90
2014,07,02,09,26,23.70
2014,07,02,09,27,23.50
2014,07,02,09,28,23.40
2014,07,02,09,29,23.30
2014,07,02,09,30,23.20
2014,07,02,09,31,23.20
2014,07,02,09,32,23.10
2014,07,02,09,33,23.10
2014,07,02,09,34,23.00
2014,07,02,09,35,23.00
2014,07,02,09,36,22.90
2014,07,02,09,37,22.80
2014,07,02,09,38,22.80
2014,07,02,09,39,22.80
2014,07,02,09,40,22.80
2014,07,02,09,41,22.80
2014,07,02,09,42,22.80
2014,07,02,09,43,22.80
2014,07,02,09,44,22.90
2014,07,02,09,45,22.90
2014,07,02,09,46,22.90
2014,07,02,09,47,23.00
2014,07,02,09,48,23.10
2014,07,02,09,49,23.20
2014,07,02,09,50,23.30
2014,07,02,09,51,23.30
2014,07,02,09,52,23.30
2014,07,02,09,53,23.40
2014,07,02,09,54,23.50
2014,07,02,09,55,23.50
2014,07,02,09,56,23.60
2014,07,02,09,57,23.70
2014,07,02,09,58,23.70
2014,07,02,09,59,23.80
2014,07,02,10,00,23.90
2014,07,02,10,01,23.90
2014,07,02,10,02,23.90
2014,07,02,10,03,23.90
2014,07,02,10,04,23.90
2014,07,02,10,05,24.00
2014,07,02,10,06,24.00
2014,07,02,10,07,24.00
2014,07,02,10,08,24.00
2014,07,02,10,09,24.10
2014,07,02,10,10,24.10
2014,07,02,10,11,24.10
2014,07,02,10,12,24.20
2014,07,02,10,13,24.20
2014,07,02,10,14,24.20
2014,07,02,10,15,24.20
2014,07,02,10,16,24.20
2014,07,02,10,17,24.30
2014,07,02,10,18,24.30
2014,07,02,10,19,24.30
2014,07,02,10,20,24.30
2014,07,02,10,21,24.30
2014,07,02,10,22,24.40
2014,07,02,10,23,24.40
2014,07,02,10,24,24.40
2014,07,02,10,25,24.50
2014,07,02,10,26,24.60
2014,07,02,10,27,24.60
2014,07,02,10,28,24.60
2014,07,02,10,29,24.70
2014,07,02,10,30,24.70
2014,07,02,10,31,24.70
2014,07,02,10,32,24.60
2014,07,02,10,33,24.60
2014,07,02,10,34,24.60
2014,07,02,10,35,24.50
2014,07,02,10,36,24.50
2014,07,02,10,37,24.50
2014,07,02,10,38,24.60
2014,07,02,10,39,24.60
2014,07,02,10,40,24.70
2014,07,02,10,41,24.70
2014,07,02,10,42,24.70
2014,07,02,10,43,24.70
2014,07,02,10,44,24.80
2014,07,02,10,45,24.80
2014,07,02,10,46,24.80
2014,07,02,10,47,24.70
2014,07,02,10,48,24.70
2014,07,02,10,49,24.70
2014,07,02,10,50,24.70
2014,07,02,10,51,24.70
2014,07,02,10,52,24.70
2014,07,02,10,53,24.80
2014,07,02,10,54,24.80
2014,07,02,10,55,24.80
2014,07,02,10,56,24.80
2014,07,02,10,57,24.80
2014,07,02,10,58,24.80
2014,07,02,10,59,24.80
2014,07,02,11,00,24.80
2014,07,02,11,01,24.70
2014,07,02,11,02,24.70
2014,07,02,11,03,24.70
2014,07,02,11,04,24.70
2014,07,02,11,05,24.80
2014,07,02,11,06,24.80
2014,07,02,11,07,24.80
2014,07,02,11,08,24.90
2014,07,02,11,09,24.90
2014,07,02,11,10,24.90
2014,07,02,11,11,25.00
2014,07,02,11,12,25.00
2014,07,02,11,13,24.90
2014,07,02,11,14,24.90
2014,07,02,11,15,24.90
2014,07,02,11,16,25.00
2014,07,02,11,17,25.00
2014,07,02,11,18,25.00
2014,07,02,11,19,24.90
2014,07,02,11,20,24.90
2014,07,02,11,21,24.80
2014,07,02,11,22,24.80
2014,07,02,11,23,24.90
2014,07,02,11,24,24.90
2014,07,02,11,25,24.90
2014,07,02,11,26,25.00
2014,07,02,11,27,25.00
2014,07,02,11,28,25.00
2014,07,02,11,29,25.00
2014,07,02,11,30,25.00
2014,07,02,11,31,25.10
2014,07,02,11,32,25.10
2014,07,02,11,33,25.10
2014,07,02,11,34,25.20
2014,07,02,11,35,25.20
2014,07,02,11,36,25.30
2014,07,02,11,37,25.30
2014,07,02,11,38,25.30
2014,07,02,11,39,25.30
2014,07,02,11,40,25.30
2014,07,02,11,41,25.30
2014,07,02,11,42,25.30
2014,07,02,11,43,25.30
2014,07,02,11,44,25.40
2014,07,02,11,45,25.40
2014,07,02,11,46,25.50
2014,07,02,11,47,25.60
2014,07,02,11,48,25.60
2014,07,02,11,49,25.60
2014,07,02,11,50,25.60
2014,07,02,11,51,25.60
2014,07,02,11,52,25.50
2014,07,02,11,53,25.50
2014,07,02,11,54,25.50
2014,07,02,11,55,25.50
2014,07,02,11,56,25.50
2014,07,02,11,57,25.60
2014,07,02,11,58,25.60
2014,07,02,11,59,25.60
2014,07,02,12,00,25.70
2014,07,02,12,01,25.60
2014,07,02,12,02,25.50
2014,07,02,12,03,25.50
2014,07,02,12,04,25.40
2014,07,02,12,05,25.40
2014,07,02,12,06,25.50
2014,07,02,12,07,25.40
2014,07,02,12,08,25.50
2014,07,02,12,09,25.50
2014,07,02,12,10,25.50
2014,07,02,12,11,25.60
2014,07,02,12,12,25.60
2014,07,02,12,13,25.50
2014,07,02,12,14,25.50
2014,07,02,12,15,25.40
2014,07,02,12,16,25.40
2014,07,02,12,17,25.40
2014,07,02,12,18,25.40
2014,07,02,12,19,25.40
2014,07,02,12,20,25.50
2014,07,02,12,21,25.40
2014,07,02,12,22,25.40
2014,07,02,12,23,25.50
2014,07,02,12,24,25.60
2014,07,02,12,25,25.60
2014,07,02,12,26,25.70
2014,07,02,12,27,25.70
2014,07,02,12,28,25.60
2014,07,02,12,29,25.60
2014,07,02,12,30,25.60
2014,07,02,12,31,25.60
2014,07,02,12,32,25.50
2014,07,02,12,33,25.40
2014,07,02,12,34,25.40
2014,07,02,12,35,25.30
2014,07,02,12,36,25.20
2014,07,02,12,37,25.20
2014,07,02,12,38,25.10
2014,07,02,12,39,25.00
2014,07,02,12,40,24.90
2014,07,02,12,41,24.80
2014,07,02,12,42,24.60
2014,07,02,12,43,24.50
2014,07,02,12,44,24.30
2014,07,02,12,45,24.30
2014,07,02,12,46,24.20
2014,07,02,12,47,24.10
2014,07,02,12,48,24.10
2014,07,02,12,49,24.00
2014,07,02,12,50,24.00
2014,07,02,12,51,24.00
2014,07,02,12,52,24.00
2014,07,02,12,53,24.00
2014,07,02,12,54,23.90
2014,07,02,12,55,23.80
2014,07,02,12,56,23.80
2014,07,02,12,57,23.70
2014,07,02,12,58,23.70
2014,07,02,12,59,23.70
2014,07,02,13,00,23.70
2014,07,02,13,01,23.70
2014,07,02,13,02,23.80
2014,07,02,13,03,23.80
2014,07,02,13,04,23.90
2014,07,02,13,05,23.90
2014,07,02,13,06,24.00
2014,07,02,13,07,24.10
2014,07,02,13,08,24.10
2014,07,02,13,09,24.20
2014,07,02,13,10,24.20
2014,07,02,13,11,24.20
2014,07,02,13,12,24.20
2014,07,02,13,13,24.20
2014,07,02,13,14,24.20
2014,07,02,13,15,24.10
2014,07,02,13,16,24.10
2014,07,02,13,17,24.10
2014,07,02,13,18,24.20
2014,07,02,13,19,24.30
2014,07,02,13,20,24.40
2014,07,02,13,21,24.50
2014,07,02,13,22,24.50
2014,07,02,13,23,24.60
2014,07,02,13,24,24.70
2014,07,02,13,25,24.70
2014,07,02,13,26,24.80
2014,07,02,13,27,24.90
2014,07,02,13,28,24.90
2014,07,02,13,29,25.00
2014,07,02,13,30,25.00
2014,07,02,13,31,25.10
2014,07,02,13,32,25.20
2014,07,02,13,33,25.30
2014,07,02,13,34,25.40
2014,07,02,13,35,25.50
2014,07,02,13,36,25.60
2014,07,02,13,37,25.70
2014,07,02,13,38,25.70
2014,07,02,13,39,25.70
2014,07,02,13,40,25.70
2014,07,02,13,41,25.70
2014,07,02,13,42,25.70
2014,07,02,13,43,25.70
2014,07,02,13,44,25.70
2014,07,02,13,45,25.70
2014,07,02,13,46,25.70
2014,07,02,13,47,25.80
2014,07,02,13,48,25.80
2014,07,02,13,49,25.90
2014,07,02,13,50,26.00
2014,07,02,13,51,26.10
2014,07,02,13,52,26.20
2014,07,02,13,53,26.30
2014,07,02,13,54,26.40
2014,07,02,13,55,26.40
2014,07,02,13,56,26.40
2014,07,02,13,57,26.40
2014,07,02,13,58,26.50
2014,07,02,13,59,26.50
2014,07,02,14,00,26.50
2014,07,02,14,01,26.50
2014,07,02,14,02,26.60
2014,07,02,14,03,26.60
2014,07,02,14,04,26.60
2014,07,02,14,05,26.60
2014,07,02,14,06,26.50
2014,07,02,14,07,26.40
2014,07,02,14,08,26.30
2014,07,02,14,09,26.30
2014,07,02,14,10,26.30
2014,07,02,14,11,26.40
2014,07,02,14,12,26.40
2014,07,02,14,13,26.30
2014,07,02,14,14,26.30
2014,07,02,14,15,26.20
2014,07,02,14,16,26.20
2014,07,02,14,17,26.20
2014,07,02,14,18,26.20
2014,07,02,14,19,26.20
2014,07,02,14,20,26.20
2014,07,02,14,21,26.20
2014,07,02,14,22,26.20
2014,07,02,14,23,26.30
2014,07,02,14,24,26.30
2014,07,02,14,25,26.30
2014,07,02,14,26,26.30
2014,07,02,14,27,26.30
2014,07,02,14,28,26.30
2014,07,02,14,29,26.30
2014,07,02,14,30,26.30
2014,07,02,14,31,26.40
2014,07,02,14,32,26.40
2014,07,02,14,33,26.40
2014,07,02,14,34,26.50
2014,07,02,14,35,26.50
2014,07,02,14,36,26.60
2014,07,02,14,37,26.60
2014,07,02,14,38,26.60
2014,07,02,14,39,26.50
2014,07,02,14,40,26.50
2014,07,02,14,41,26.50
2014,07,02,14,42,26.50
2014,07,02,14,43,26.40
2014,07,02,14,44,26.40
2014,07,02,14,45,26.30
2014,07,02,14,46,26.30
2014,07,02,14,47,26.40
2014,07,02,14,48,26.40
2014,07,02,14,49,26.40
2014,07,02,14,50,26.40
2014,07,02,14,51,26.40
2014,07,02,14,52,26.40
2014,07,02,14,53,26.40
2014,07,02,14,54,26.40
2014,07,02,14,55,26.40
2014,07,02,14,56,26.40
2014,07,02,14,57,26.50
2014,07,02,14,58,26.50
2014,07,02,14,59,26.60
2014,07,02,15,00,26.70
2014,07,02,15,01,26.70
2014,07,02,15,02,26.80
2014,07,02,15,03,26.80
2014,07,02,15,04,26.90
2014,07,02,15,05,26.90
2014,07,02,15,06,27.00
2014,07,02,15,07,26.90
2014,07,02,15,08,26.90
2014,07,02,15,09,26.90
2014,07,02,15,10,26.80
2014,07,02,15,11,26.60
2014,07,02,15,12,26.60
2014,07,02,15,13,26.50
2014,07,02,15,14,26.50
2014,07,02,15,15,26.50
2014,07,02,15,16,26.60
2014,07,02,15,17,26.70
2014,07,02,15,18,26.80
2014,07,02,15,19,26.80
2014,07,02,15,20,26.90
2014,07,02,15,21,26.90
2014,07,02,15,22,26.90
2014,07,02,15,23,26.80
2014,07,02,15,24,26.80
2014,07,02,15,25,26.80
2014,07,02,15,26,26.80
2014,07,02,15,27,26.70
2014,07,02,15,28,26.70
2014,07,02,15,29,26.70
2014,07,02,15,30,26.60
2014,07,02,15,31,26.60
2014,07,02,15,32,26.60
2014,07,02,15,33,26.60
2014,07,02,15,34,26.50
2014,07,02,15,35,26.50
2014,07,02,15,36,26.50
2014,07,02,15,37,26.60
2014,07,02,15,38,26.60
2014,07,02,15,39,26.60
2014,07,02,15,40,26.70
2014,07,02,15,41,26.70
2014,07,02,15,42,26.70
2014,07,02,15,43,26.70
2014,07,02,15,44,26.70
2014,07,02,15,45,26.70
2014,07,02,15,46,26.60
2014,07,02,15,47,26.60
2014,07,02,15,48,26.50
2014,07,02,15,49,26.50
2014,07,02,15,50,26.50
2014,07,02,15,51,26.50
2014,07,02,15,52,26.50
2014,07,02,15,53,26.40
2014,07,02,15,54,26.40
2014,07,02,15,55,26.40
2014,07,02,15,56,26.30
2014,07,02,15,57,26.30
2014,07,02,15,58,26.30
2014,07,02,15,59,26.30
2014,07,02,16,00,26.30
2014,07,02,16,01,26.20
2014,07,02,16,02,26.20
2014,07,02,16,03,26.20
2014,07,02,16,04,26.10
2014,07,02,16,05,26.10
2014,07,02,16,06,26.10
2014,07,02,16,07,26.10
2014,07,02,16,08,26.10
2014,07,02,16,09,26.10
2014,07,02,16,10,26.10
2014,07,02,16,11,26.20
2014,07,02,16,12,26.20
2014,07,02,16,13,26.30
2014,07,02,16,14,26.30
2014,07,02,16,15,26.40
2014,07,02,16,16,26.50
2014,07,02,16,17,26.50
2014,07,02,16,18,26.50
2014,07,02,16,19,26.50
2014,07,02,16,20,26.50
2014,07,02,16,21,26.50
2014,07,02,16,22,26.50
2014,07,02,16,23,26.50
2014,07,02,16,24,26.40
2014,07,02,16,25,26.40
2014,07,02,16,26,26.40
2014,07,02,16,27,26.40
2014,07,02,16,28,26.40
2014,07,02,16,29,26.30
2014,07,02,16,30,26.30
2014,07,02,16,31,26.30
2014,07,02,16,32,26.40
2014,07,02,16,33,26.40
2014,07,02,16,34,26.50
2014,07,02,16,35,26.50
2014,07,02,16,36,26.60
2014,07,02,16,37,26.60
2014,07,02,16,38,26.50
2014,07,02,16,39,26.50
2014,07,02,16,40,26.40
2014,07,02,16,41,26.40
2014,07,02,16,42,26.40
2014,07,02,16,43,26.50
2014,07,02,16,44,26.60
2014,07,02,16,45,26.70
2014,07,02,16,46,26.70
2014,07,02,16,47,26.70
2014,07,02,16,48,26.70
2014,07,02,16,49,26.60
2014,07,02,16,50,26.60
2014,07,02,16,51,26.50
2014,07,02,16,52,26.50
2014,07,02,16,53,26.50
2014,07,02,16,54,26.40
2014,07,02,16,55,26.40
2014,07,02,16,56,26.40
2014,07,02,16,57,26.40
2014,07,02,16,58,26.40
2014,07,02,16,59,26.40
2014,07,02,17,00,26.40
2014,07,02,17,01,26.40
2014,07,02,17,02,26.40
2014,07,02,17,03,26.30
2014,07,02,17,04,26.30
2014,07,02,17,05,26.20
2014,07,02,17,06,26.10
2014,07,02,17,07,26.10
2014,07,02,17,08,26.00
2014,07,02,17,09,26.00
2014,07,02,17,10,25.90
2014,07,02,17,11,25.90
2014,07,02,17,12,25.80
2014,07,02,17,13,25.80
2014,07,02,17,14,25.80
2014,07,02,17,15,25.80
2014,07,02,17,16,25.80
2014,07,02,17,17,25.80
2014,07,02,17,18,25.80
2014,07,02,17,19,25.80